Total_Precipitation_Accumulation
3.42 3.55 3.55 3.59 3.37 3.34 3.27 3.17 3.06 3.18 3.06 2.79 2.48 2.44 2.47 2.43 2.58 2.85 3.00 3.27 3.29 3.66 4.23 4.54 4.51 4.48 4.69 4.77 4.52 4.28 4.08 3.94 3.81 3.45 3.13 3.01 2.91 2.75 2.49 2.39 2.33 2.26 2.29
3.71 3.81 3.79 3.79 3.69 3.55 3.59 3.42 3.24 3.46 3.37 3.24 3.00 2.86 2.75 2.81 2.82 2.91 3.13 3.43 3.41 3.41 3.79 4.20 4.46 4.63 4.92 4.98 4.74 4.27 3.98 4.01 4.15 3.96 3.60 3.27 3.01 2.95 2.86 2.72 2.53 2.36 2.28
3.73 3.94 4.09 4.00 4.01 3.89 3.86 3.80 3.79 3.90 3.62 3.45 3.27 3.11 3.06 3.17 3.12 3.03 3.26 3.55 3.54 3.62 3.64 3.68 3.88 4.11 4.51 4.81 4.86 4.65 4.24 4.00 4.07 4.10 3.94 3.63 3.28 3.09 2.98 2.90 2.85 2.74 2.59
3.73 4.12 4.24 4.23 4.32 4.23 4.32 4.40 4.31 4.23 4.16 3.89 3.67 3.27 3.14 3.29 3.27 3.29 3.41 3.54 3.81 3.73 3.70 3.58 3.60 3.60 3.89 4.40 4.60 4.81 4.80 4.61 4.32 4.12 4.05 3.84 3.60 3.35 3.13 2.92 2.86 2.88 2.82
4.26 4.48 4.58 4.67 4.71 4.76 4.83 4.61 4.81 4.62 4.58 4.42 3.92 3.65 3.37 3.24 3.25 3.21 3.38 3.36 3.54 3.62 3.70 3.65 3.61 3.53 3.69 4.26 4.55 4.84 5.01 5.03 4.86 4.46 4.20 4.00 3.88 3.68 3.44 3.24 3.05 2.92 2.87
4.99 5.18 5.09 5.17 5.22 5.32 5.21 5.20 5.35 5.15 4.86 4.83 4.29 4.07 3.75 3.39 3.34 3.33 3.35 3.53 3.42 3.18 3.41 3.60 3.75 3.49 3.67 3.90 4.19 4.61 4.86 5.04 5.03 4.77 4.62 4.47 4.21 3.94 3.57 3.29 3.06 2.91 2.87
5.99 6.09 5.80 5.90 5.81 5.70 5.49 5.48 5.44 5.23 4.97 4.95 4.84 4.42 3.73 3.28 3.23 3.12 3.11 3.33 3.31 3.25 3.36 3.45 3.51 3.37 3.20 3.33 3.46 3.89 4.45 4.88 5.21 5.08 4.84 4.60 4.25 4.00 3.76 3.56 3.37 3.11 2.89
6.88 6.94 6.95 6.71 6.54 6.31 5.83 5.48 5.38 5.17 4.80 4.91 4.98 4.99 4.34 3.84 3.26 2.73 2.78 2.83 2.95 3.16 3.06 3.00 3.16 3.32 3.12 3.08 2.91 3.12 3.50 4.00 4.64 4.99 4.97 4.66 4.39 4.17 3.99 3.82 3.66 3.45 3.16
6.90 7.20 7.32 7.09 6.75 6.19 5.64 5.53 5.50 5.33 5.08 4.97 4.87 5.18 4.73 4.18 3.60 2.95 2.61 2.56 2.69 2.78 2.76 2.77 2.75 2.86 2.83 2.93 2.86 2.83 2.95 3.20 3.84 4.42 4.59 4.32 4.11 3.98 3.93 3.86 3.80 3.68 3.52
6.69 6.66 6.63 6.30 5.94 5.56 5.30 5.16 5.27 5.18 5.14 4.91 4.82 4.55 4.35 4.05 3.74 3.28 2.76 2.50 2.57 2.58 2.50 2.42 2.42 2.65 2.76 2.86 2.92 2.77 2.61 2.72 3.18 3.69 4.00 4.01 3.87 3.78 3.81 3.77 3.73 3.77 3.80
5.89 5.46 5.20 5.07 5.03 4.87 4.67 4.58 4.68 4.62 4.36 4.24 4.27 4.32 4.31 4.02 3.57 3.28 3.00 2.76 2.68 2.41 2.33 2.41 2.50 2.67 2.85 2.88 2.93 2.82 2.68 2.45 2.57 2.86 3.18 3.41 3.62 3.69 3.74 3.89 3.94 3.93 3.95
5.05 4.51 4.30 4.23 4.16 4.00 3.82 3.72 3.76 3.79 3.81 3.87 3.99 4.05 4.05 3.97 3.63 3.56 3.32 3.00 2.85 2.61 2.45 2.43 2.51 2.70 2.92 3.03 2.95 3.17 2.75 2.43 2.37 2.48 2.64 2.79 3.06 3.25 3.37 3.54 3.77 3.90 4.01
4.53 4.08 3.69 3.56 3.32 3.17 3.12 3.21 3.22 3.19 3.31 3.43 3.55 3.66 3.66 3.55 3.40 3.45 3.53 3.24 2.93 2.70 2.63 2.52 2.50 2.64 2.72 2.99 3.24 3.35 2.82 2.54 2.36 2.29 2.35 2.44 2.62 2.80 2.85 2.89 3.14 3.40 3.65
3.91 3.67 3.28 2.94 2.71 2.58 2.52 2.74 2.82 2.83 2.93 3.04 3.08 3.31 3.25 3.12 3.20 3.29 3.45 3.60 3.48 3.06 2.76 2.59 2.52 2.55 2.57 2.65 2.95 3.10 2.66 2.60 2.31 2.17 2.15 2.25 2.38 2.56 2.60 2.60 2.79 2.99 3.10
3.03 2.91 2.71 2.55 2.44 2.39 2.42 2.52 2.51 2.58 2.75 2.81 2.82 2.93 3.02 2.97 3.05 3.07 3.20 3.37 3.52 3.29 2.94 2.67 2.54 2.49 2.51 2.58 2.79 2.40 2.34 2.56 2.35 2.20 2.08 2.02 2.03 2.22 2.31 2.28 2.26 2.34 2.40
2.38 2.37 2.31 2.33 2.30 2.23 2.29 2.39 2.29 2.34 2.47 2.46 2.45 2.56 2.64 2.65 2.79 2.82 2.94 3.12 3.26 3.21 3.00 2.58 2.49 2.46 2.41 2.23 2.48 2.15 2.18 2.40 2.20 2.07 1.98 1.98 1.94 1.94 2.00 2.05 2.05 2.04 2.05
2.07 2.05 2.08 2.13 2.16 2.16 2.21 2.18 2.02 2.06 2.13 2.29 2.39 2.44 2.48 2.55 2.66 2.62 2.65 2.71 2.84 3.02 3.08 2.81 2.61 2.56 2.57 2.45 2.31 2.08 1.94 1.93 1.86 1.99 1.96 1.92 1.85 1.83 1.86 1.85 1.81 1.77 1.76
1.97 1.97 1.97 1.95 1.98 2.13 2.23 2.15 1.99 1.94 2.06 2.22 2.34 2.48 2.42 2.38 2.43 2.47 2.55 2.53 2.53 2.70 2.86 2.79 2.62 2.49 2.49 2.47 2.40 2.31 1.89 1.69 1.66 1.75 1.70 1.67 1.68 1.68 1.63 1.65 1.64 1.61 1.56
2.00 1.95 1.90 1.89 1.92 2.00 2.06 1.99 1.91 1.88 1.92 2.01 2.13 2.19 2.22 2.26 2.18 2.15 2.18 2.25 2.26 2.30 2.55 2.57 2.46 2.38 2.30 2.26 2.32 2.24 2.00 2.00 1.59 1.55 1.51 1.44 1.45 1.47 1.45 1.41 1.42 1.48 1.47
1.94 1.95 1.94 1.93 1.89 1.81 1.70 1.65 1.65 1.69 1.74 1.74 1.80 1.82 1.91 2.05 2.06 2.03 1.96 2.05 2.16 2.33 2.42 2.45 2.32 2.25 2.25 2.12 2.22 2.19 2.12 1.98 1.74 1.46 1.49 1.35 1.27 1.24 1.26 1.27 1.23 1.23 1.27
1.76 1.81 1.86 1.79 1.65 1.50 1.32 1.36 1.44 1.47 1.59 1.60 1.61 1.53 1.51 1.73 1.89 1.83 1.64 1.82 2.08 2.27 2.34 2.35 2.23 2.10 2.01 2.12 2.08 2.01 2.04 2.04 1.92 1.71 1.70 1.49 1.37 1.30 1.31 1.32 1.25 1.19 1.20
1.96 1.85 1.80 1.72 1.57 1.28 1.30 1.28 1.39 1.53 1.63 1.59 1.59 1.57 1.45 1.47 1.56 1.52 1.45 1.59 1.88 1.98 2.10 2.27 2.23 2.11 2.00 2.01 2.08 2.06 2.12 2.20 2.14 1.84 1.88 1.69 1.55 1.55 1.44 1.35 1.33 1.24 1.20
2.04 1.92 1.77 1.72 1.66 1.57 1.45 1.23 1.27 1.41 1.50 1.50 1.51 1.55 1.36 1.26 1.47 1.48 1.50 1.48 1.53 1.55 1.69 2.05 2.27 2.11 2.07 2.13 2.30 2.22 2.32 2.32 2.14 1.99 2.17 2.06 1.74 1.60 1.31 1.22 1.31 1.18 1.16
2.06 1.96 1.82 1.69 1.58 1.34 1.21 1.08 1.13 1.24 1.44 1.45 1.41 1.46 1.53 1.42 1.35 1.42 1.42 1.41 1.43 1.47 1.46 1.54 1.83 1.96 2.01 2.17 2.31 2.37 2.50 2.42 2.25 2.15 2.28 2.33 1.93 1.77 1.45 1.43 1.36 1.18 1.13
2.00 1.88 1.75 1.66 1.56 1.36 1.16 1.04 1.11 1.25 1.44 1.43 1.39 1.37 1.45 1.44 1.44 1.38 1.42 1.53 1.57 1.54 1.33 1.35 1.43 1.60 1.72 1.87 2.01 2.16 2.43 2.62 2.42 2.13 2.13 2.32 2.04 1.90 1.72 1.58 1.39 1.30 1.20
1.93 1.83 1.68 1.61 1.55 1.49 1.36 1.18 1.17 1.21 1.35 1.39 1.47 1.45 1.39 1.38 1.40 1.34 1.45 1.64 1.63 1.57 1.45 1.41 1.51 1.61 1.62 1.76 1.90 2.04 2.36 2.50 2.35 2.23 1.98 2.13 2.07 2.16 2.12 1.72 1.52 1.45 1.37